owner,sensor,date,latitude,longitude,vertical_datum,wind_speed,wind_to_direction,wind_speed_of_gust,qcFlag 
TABS,ioos:station:wmo:42047:1,2005-05-01T00:09:00Z,27.8966,-93.5973,4.0,10.65037558,23.4596899,18.48,'11111222,11111222,11111222' 
TABS,ioos:station:wmo:42047:1,2005-05-01T00:39:00Z,27.8966,-93.5973,4.0,10.48361102,16.34302819,19.0,'11111222,11111222,11111222' 
TABS,ioos:station:wmo:42047:1,2005-05-01T01:09:00Z,27.8966,-93.5973,4.0,10.53406379,19.00230091,18.17,'11111222,11111222,11111222' 
TABS,ioos:station:wmo:42047:1,2005-05-01T01:39:00Z,27.8966,-93.5973,4.0,10.46906395,23.23425685,18.97,'11111222,11111222,11111222' 
TABS,ioos:station:wmo:42047:1,2005-05-01T02:09:00Z,27.8966,-93.5973,4.0,9.786214794,25.67451572,17.04,'11111222,11111222,11111222' 
TABS,ioos:station:wmo:42047:1,2005-05-01T02:39:00Z,27.8966,-93.5973,4.0,10.06475534,22.92175406,17.49,'11111222,11111222,11111222' 
TABS,ioos:station:wmo:42047:1,2005-05-01T03:09:00Z,27.8966,-93.5973,4.0,9.782279898,16.69338466,18.1,'11111222,11111222,11111222' 
TABS,ioos:station:wmo:42047:1,2005-05-01T03:39:00Z,27.8966,-93.5973,4.0,10.21937376,6.178989277,17.92,'11111222,11111222,11111222' 
TABS,ioos:station:wmo:42047:1,2005-05-01T04:09:00Z,27.8966,-93.5973,4.0,10.00487881,12.70249175,17.22,'11111222,11111222,11111222' 
TABS,ioos:station:wmo:42047:1,2005-05-01T05:09:00Z,27.8966,-93.5973,4.0,9.447835731,15.59528087,16.58,'11111222,11111222,11111222' 
TABS,ioos:station:wmo:42047:1,2005-05-01T05:39:00Z,27.8966,-93.5973,4.0,9.442478488,15.47839151,17.16,'11111222,11111222,11111222' 
TABS,ioos:station:wmo:42047:1,2005-05-01T06:09:00Z,27.8966,-93.5973,4.0,10.22937437,12.41921366,17.99,'11111222,11111222,11111222' 
TABS,ioos:station:wmo:42047:1,2005-05-01T06:39:00Z,27.8966,-93.5973,4.0,9.651290069,7.441417898,18.34,'11111222,11111222,11111222' 
TABS,ioos:station:wmo:42047:1,2005-05-01T07:09:00Z,27.8966,-93.5973,4.0,9.505288002,13.56817168,17.43,'11111222,11111222,11111222' 
TABS,ioos:station:wmo:42047:1,2005-05-01T07:39:00Z,27.8966,-93.5973,4.0,9.099478007,15.22726021,16.73,'11111222,11111222,11111222' 
TABS,ioos:station:wmo:42047:1,2005-05-01T08:09:00Z,27.8966,-93.5973,4.0,9.372006189,28.83462122,17.55,'11111222,11111222,11111222' 
TABS,ioos:station:wmo:42047:1,2005-05-01T08:39:00Z,27.8966,-93.5973,4.0,9.566592915,23.99262772,17.37,'11111222,11111222,11111222' 
TABS,ioos:station:wmo:42047:1,2005-05-01T09:09:00Z,27.8966,-93.5973,4.0,8.846536045,30.27480384,16.3,'11111222,11111222,11111222' 
TABS,ioos:station:wmo:42047:1,2005-05-01T09:39:00Z,27.8966,-93.5973,4.0,7.620478988,14.12717714,15.45,'11111222,11111222,11111222' 
TABS,ioos:station:wmo:42047:1,2005-05-01T10:09:00Z,27.8966,-93.5973,4.0,7.554078369,23.0688556,15.11,'11111222,11111222,11111222' 
TABS,ioos:station:wmo:42047:1,2005-05-01T10:39:00Z,27.8966,-93.5973,4.0,6.056550173,24.06788072,14.97,'11111222,11111222,11111222' 
TABS,ioos:station:wmo:42047:1,2005-05-01T11:09:00Z,27.8966,-93.5973,4.0,5.71986888,26.47518423,14.79,'11111222,11111222,11111222' 
TABS,ioos:station:wmo:42047:1,2005-05-01T11:39:00Z,27.8966,-93.5973,4.0,7.540039788,19.443994,16.29,'11111222,11111222,11111222' 
TABS,ioos:station:wmo:42047:1,2005-05-01T12:09:00Z,27.8966,-93.5973,4.0,7.4506644,23.74359748,17.55,'11111222,11111222,11111222' 
TABS,ioos:station:wmo:42047:1,2005-05-01T12:39:00Z,27.8966,-93.5973,4.0,7.058611762,17.81863679,14.35,'11111222,11111222,11111222' 
TABS,ioos:station:wmo:42047:1,2005-05-01T13:09:00Z,27.8966,-93.5973,4.0,5.836994089,16.72720065,13.84,'11111222,11111222,11111222' 
TABS,ioos:station:wmo:42047:1,2005-05-01T13:39:00Z,27.8966,-93.5973,4.0,5.999208281,19.06893849,13.38,'11111222,11111222,11111222' 
TABS,ioos:station:wmo:42047:1,2005-05-01T14:39:00Z,27.8966,-93.5973,4.0,1.533753566,12.04233652,11.95,'11111222,11111222,11111222' 
TABS,ioos:station:wmo:42047:1,2005-05-01T15:09:00Z,27.8966,-93.5973,4.0,3.152459357,354.9041015,12.96,'11111222,11111222,11111222' 
TABS,ioos:station:wmo:42047:1,2005-05-01T15:39:00Z,27.8966,-93.5973,4.0,1.64,347.3194357,11.93,'11111222,11111222,11111222' 
TABS,ioos:station:wmo:42047:1,2005-05-01T16:39:00Z,27.8966,-93.5973,4.0,1.147911146,341.7227227,11.95,'11111222,11111222,11111222' 
TABS,ioos:station:wmo:42047:1,2005-05-01T17:09:00Z,27.8966,-93.5973,4.0,4.064701711,352.5076272,12.86,'11111222,11111222,11111222' 
TABS,ioos:station:wmo:42047:1,2005-05-01T17:39:00Z,27.8966,-93.5973,4.0,3.972908255,355.3798769,13.61,'11111222,11111222,11111222' 
TABS,ioos:station:wmo:42047:1,2005-05-01T18:09:00Z,27.8966,-93.5973,4.0,4.970251503,359.423394,13.37,'11111222,11144222,11111222' 
TABS,ioos:station:wmo:42047:1,2005-05-01T18:39:00Z,27.8966,-93.5973,4.0,5.871848091,8.323065561,14.74,'11111222,11111222,11111222' 
TABS,ioos:station:wmo:42047:1,2005-05-01T19:09:00Z,27.8966,-93.5973,4.0,5.779558807,16.89839872,14.16,'11111222,11111222,11111222' 
TABS,ioos:station:wmo:42047:1,2005-05-01T19:39:00Z,27.8966,-93.5973,4.0,6.762285117,31.26862132,15.71,'11111222,11111222,11111222' 
TABS,ioos:station:wmo:42047:1,2005-05-01T20:39:00Z,27.8966,-93.5973,4.0,5.656801216,35.06640721,13.43,'11111222,11111222,11111222' 
TABS,ioos:station:wmo:42047:1,2005-05-01T21:09:00Z,27.8966,-93.5973,4.0,5.541479947,33.51771981,13.42,'11111222,11111222,11111222' 
TABS,ioos:station:wmo:42047:1,2005-05-01T21:39:00Z,27.8966,-93.5973,4.0,5.054305096,27.57875495,13.3,'11111222,11111222,11111222' 
TABS,ioos:station:wmo:42047:1,2005-05-01T22:09:00Z,27.8966,-93.5973,4.0,4.881936091,21.88832279,12.27,'11111222,11111222,11111222' 
TABS,ioos:station:wmo:42047:1,2005-05-01T22:39:00Z,27.8966,-93.5973,4.0,5.364792633,31.5862279,13.33,'11111222,11111222,11111222' 
TABS,ioos:station:wmo:42047:1,2005-05-01T23:09:00Z,27.8966,-93.5973,4.0,5.576064921,39.54214359,13.43,'11111222,11111222,11111222' 
TABS,ioos:station:wmo:42047:1,2005-05-01T23:39:00Z,27.8966,-93.5973,4.0,6.064857789,37.83325611,13.24,'11111222,11111222,11111222' 
TABS,ioos:station:wmo:42047:1,2005-05-02T00:09:00Z,27.8966,-93.5973,4.0,6.121805289,40.42841252,13.89,'11111222,11111222,11111222' 
TABS,ioos:station:wmo:42047:1,2005-05-02T00:39:00Z,27.8966,-93.5973,4.0,6.828835918,41.55658653,13.86,'11111222,11111222,11111222' 
TABS,ioos:station:wmo:42047:1,2005-05-02T01:09:00Z,27.8966,-93.5973,4.0,5.646459067,50.38898347,13.24,'11111222,11111222,11111222' 
TABS,ioos:station:wmo:42047:1,2005-05-02T01:39:00Z,27.8966,-93.5973,4.0,5.642632364,49.9600834,13.11,'11111222,11111222,11111222' 
TABS,ioos:station:wmo:42047:1,2005-05-02T02:09:00Z,27.8966,-93.5973,4.0,5.883068927,51.27902171,13.37,'11111222,11111222,11111222' 
TABS,ioos:station:wmo:42047:1,2005-05-02T02:39:00Z,27.8966,-93.5973,4.0,6.148666522,59.72309011,13.3,'11111222,11111222,11111222' 
TABS,ioos:station:wmo:42047:1,2005-05-02T03:09:00Z,27.8966,-93.5973,4.0,5.732826528,56.30959034,12.8,'11111222,11111222,11111222' 
TABS,ioos:station:wmo:42047:1,2005-05-02T03:39:00Z,27.8966,-93.5973,4.0,6.030655022,59.94837644,12.93,'11111222,11111222,11111222' 
TABS,ioos:station:wmo:42047:1,2005-05-02T04:09:00Z,27.8966,-93.5973,4.0,6.015787563,56.04543525,12.26,'11111222,11111222,11111222' 
TABS,ioos:station:wmo:42047:1,2005-05-02T04:39:00Z,27.8966,-93.5973,4.0,5.819501697,62.24568888,11.73,'11111222,11111222,11111222' 
TABS,ioos:station:wmo:42047:1,2005-05-02T05:09:00Z,27.8966,-93.5973,4.0,6.153381184,60.39335763,12.2,'11111222,11111222,11111222' 
TABS,ioos:station:wmo:42047:1,2005-05-02T05:39:00Z,27.8966,-93.5973,4.0,5.554259627,70.32498387,11.88,'11111222,11111222,11111222' 
TABS,ioos:station:wmo:42047:1,2005-05-02T06:09:00Z,27.8966,-93.5973,4.0,4.980773032,67.45055698,11.41,'11111222,11111222,11111222' 
TABS,ioos:station:wmo:42047:1,2005-05-02T06:39:00Z,27.8966,-93.5973,4.0,5.19264865,72.05317495,11.57,'11111222,11111222,11111222' 
TABS,ioos:station:wmo:42047:1,2005-05-02T07:09:00Z,27.8966,-93.5973,4.0,4.479698651,75.65316223,10.39,'11111222,11111222,11111222' 
TABS,ioos:station:wmo:42047:1,2005-05-02T07:39:00Z,27.8966,-93.5973,4.0,5.195276701,75.50865064,11.12,'11111222,11111222,11111222' 
TABS,ioos:station:wmo:42047:1,2005-05-02T08:09:00Z,27.8966,-93.5973,4.0,5.352382647,73.05429533,11.23,'11111222,11111222,11111222' 
TABS,ioos:station:wmo:42047:1,2005-05-02T08:39:00Z,27.8966,-93.5973,4.0,6.043550281,81.05161674,11.86,'11111222,11111222,11111222' 
TABS,ioos:station:wmo:42047:1,2005-05-02T09:09:00Z,27.8966,-93.5973,4.0,5.710639194,68.96211725,11.53,'11111222,11111222,11111222' 
TABS,ioos:station:wmo:42047:1,2005-05-02T09:39:00Z,27.8966,-93.5973,4.0,5.474166603,72.12735082,12.45,'11111222,11111222,11111222' 
TABS,ioos:station:wmo:42047:1,2005-05-02T10:09:00Z,27.8966,-93.5973,4.0,5.722604302,83.88053439,11.64,'11111222,11111222,11111222' 
TABS,ioos:station:wmo:42047:1,2005-05-02T10:39:00Z,27.8966,-93.5973,4.0,6.42919124,71.02921564,13.07,'11111222,11111222,11111222' 
TABS,ioos:station:wmo:42047:1,2005-05-02T11:09:00Z,27.8966,-93.5973,4.0,5.712950201,80.22401097,11.97,'11111222,11111222,11111222' 
TABS,ioos:station:wmo:42047:1,2005-05-02T11:39:00Z,27.8966,-93.5973,4.0,6.208582769,85.56549449,11.91,'11111222,11111222,11111222' 
TABS,ioos:station:wmo:42047:1,2005-05-02T12:09:00Z,27.8966,-93.5973,4.0,6.516417728,73.87305862,12.52,'11111222,11111222,11111222' 
TABS,ioos:station:wmo:42047:1,2005-05-02T12:39:00Z,27.8966,-93.5973,4.0,6.148601467,80.82835063,12.46,'11111222,11111222,11111222' 
TABS,ioos:station:wmo:42047:1,2005-05-02T13:09:00Z,27.8966,-93.5973,4.0,6.53723183,73.56061607,12.65,'11111222,11111222,11111222' 
TABS,ioos:station:wmo:42047:1,2005-05-02T13:39:00Z,27.8966,-93.5973,4.0,6.956090856,76.36291319,13.14,'11111222,11111222,11111222' 
TABS,ioos:station:wmo:42047:1,2005-05-02T14:39:00Z,27.8966,-93.5973,4.0,6.722685475,74.55762246,12.87,'11111222,11111222,11111222' 
TABS,ioos:station:wmo:42047:1,2005-05-02T15:09:00Z,27.8966,-93.5973,4.0,6.643952137,71.48286146,13.16,'11111222,11111222,11111222' 
TABS,ioos:station:wmo:42047:1,2005-05-02T15:39:00Z,27.8966,-93.5973,4.0,6.255213825,77.62976165,12.61,'11111222,11111222,11111222' 
TABS,ioos:station:wmo:42047:1,2005-05-02T16:39:00Z,27.8966,-93.5973,4.0,6.798014416,73.85740856,12.64,'11111222,11111222,11111222' 
TABS,ioos:station:wmo:42047:1,2005-05-02T17:09:00Z,27.8966,-93.5973,4.0,6.508963051,72.56682735,12.46,'11111222,11111222,11111222' 
TABS,ioos:station:wmo:42047:1,2005-05-02T17:39:00Z,27.8966,-93.5973,4.0,6.716621174,68.05565499,13.04,'11111222,11111222,11111222' 
TABS,ioos:station:wmo:42047:1,2005-05-02T18:10:00Z,27.8966,-93.5973,4.0,0.21023796,2.72609416,12.25,'11111222,11111222,11111222' 
TABS,ioos:station:wmo:42047:1,2005-05-02T18:39:00Z,27.8966,-93.5973,4.0,6.663069863,65.43469966,12.86,'11111222,11111222,11111222' 
TABS,ioos:station:wmo:42047:1,2005-05-02T19:09:00Z,27.8966,-93.5973,4.0,7.014855665,57.10248064,13.36,'11111222,11111222,11111222' 
TABS,ioos:station:wmo:42047:1,2005-05-02T19:39:00Z,27.8966,-93.5973,4.0,6.609886535,57.10297492,13.0,'11111222,11111222,11111222' 
TABS,ioos:station:wmo:42047:1,2005-05-02T20:39:00Z,27.8966,-93.5973,4.0,6.932135313,63.98904671,13.47,'11111222,11111222,11111222' 
TABS,ioos:station:wmo:42047:1,2005-05-02T21:09:00Z,27.8966,-93.5973,4.0,6.801441024,55.42171911,12.99,'11111222,11111222,11111222' 
TABS,ioos:station:wmo:42047:1,2005-05-02T21:39:00Z,27.8966,-93.5973,4.0,7.187127382,51.43946243,14.41,'11111222,11111222,11111222' 
TABS,ioos:station:wmo:42047:1,2005-05-02T22:09:00Z,27.8966,-93.5973,4.0,7.496185697,45.86445857,13.91,'11111222,11111222,11111222' 
TABS,ioos:station:wmo:42047:1,2005-05-02T22:39:00Z,27.8966,-93.5973,4.0,7.480748626,48.46790546,14.01,'11111222,11111222,11111222' 
TABS,ioos:station:wmo:42047:1,2005-05-02T23:09:00Z,27.8966,-93.5973,4.0,7.721657853,45.20955753,14.31,'11111222,11111222,11111222' 
TABS,ioos:station:wmo:42047:1,2005-05-02T23:39:00Z,27.8966,-93.5973,4.0,7.656657234,42.77675495,13.94,'11111222,11111222,11111222' 
TABS,ioos:station:wmo:42047:1,2005-05-03T00:09:00Z,27.8966,-93.5973,4.0,6.789698079,46.19317095,13.91,'11111222,11111222,11111222' 
TABS,ioos:station:wmo:42047:1,2005-05-03T00:39:00Z,27.8966,-93.5973,4.0,6.551717332,46.97887582,13.18,'11111222,11111222,11111222' 
TABS,ioos:station:wmo:42047:1,2005-05-03T01:09:00Z,27.8966,-93.5973,4.0,6.632661608,44.99968431,14.1,'11111222,11111222,11111222' 
TABS,ioos:station:wmo:42047:1,2005-05-03T01:39:00Z,27.8966,-93.5973,4.0,6.695252049,56.45199844,13.5,'11111222,11111222,11111222' 
TABS,ioos:station:wmo:42047:1,2005-05-03T02:09:00Z,27.8966,-93.5973,4.0,7.515510628,57.66294557,13.82,'11111222,11111222,11111222' 
TABS,ioos:station:wmo:42047:1,2005-05-03T02:39:00Z,27.8966,-93.5973,4.0,7.105131948,65.20196794,13.01,'11111222,11111222,11111222' 
TABS,ioos:station:wmo:42047:1,2005-05-03T03:09:00Z,27.8966,-93.5973,4.0,6.774215822,61.61869168,13.98,'11111222,11111222,11111222' 
TABS,ioos:station:wmo:42047:1,2005-05-03T03:39:00Z,27.8966,-93.5973,4.0,6.396162912,67.2832982,13.23,'11111222,11111222,11111222' 
TABS,ioos:station:wmo:42047:1,2005-05-03T04:09:00Z,27.8966,-93.5973,4.0,7.619199433,65.08268883,13.74,'11111222,11111222,11111222' 
TABS,ioos:station:wmo:42047:1,2005-05-03T04:39:00Z,27.8966,-93.5973,4.0,7.349176825,71.76190373,13.66,'11111222,11111222,11111222' 
TABS,ioos:station:wmo:42047:1,2005-05-03T05:09:00Z,27.8966,-93.5973,4.0,7.812073988,73.49004736,13.74,'11111222,11111222,11111222' 
TABS,ioos:station:wmo:42047:1,2005-05-03T05:39:00Z,27.8966,-93.5973,4.0,7.387692468,75.73764809,13.4,'11111222,11111222,11111222' 
TABS,ioos:station:wmo:42047:1,2005-05-03T06:09:00Z,27.8966,-93.5973,4.0,7.946854724,71.35947695,14.19,'11111222,11111222,11111222' 
TABS,ioos:station:wmo:42047:1,2005-05-03T06:39:00Z,27.8966,-93.5973,4.0,7.385939344,74.28864434,13.86,'11111222,11111222,11111222' 
TABS,ioos:station:wmo:42047:1,2005-05-03T07:09:00Z,27.8966,-93.5973,4.0,7.712457455,73.11536625,14.19,'11111222,11111222,11111222' 
TABS,ioos:station:wmo:42047:1,2005-05-03T07:39:00Z,27.8966,-93.5973,4.0,8.016090069,75.47797065,14.19,'11111222,11111222,11111222' 
TABS,ioos:station:wmo:42047:1,2005-05-03T08:09:00Z,27.8966,-93.5973,4.0,6.868660714,76.18591396,12.84,'11111222,11111222,11111222' 
TABS,ioos:station:wmo:42047:1,2005-05-03T08:39:00Z,27.8966,-93.5973,4.0,7.144347416,72.40160202,13.34,'11111222,11111222,11111222' 
TABS,ioos:station:wmo:42047:1,2005-05-03T09:09:00Z,27.8966,-93.5973,4.0,6.651533658,72.68156538,12.51,'11111222,11111222,11111222' 
TABS,ioos:station:wmo:42047:1,2005-05-03T09:39:00Z,27.8966,-93.5973,4.0,5.495962154,76.31735292,11.6,'11111222,11111222,11111222' 
TABS,ioos:station:wmo:42047:1,2005-05-03T10:09:00Z,27.8966,-93.5973,4.0,5.401425738,75.52600559,10.69,'11111222,11111222,11111222' 
TABS,ioos:station:wmo:42047:1,2005-05-03T10:39:00Z,27.8966,-93.5973,4.0,5.957180541,67.91245913,11.64,'11111222,11111222,11111222' 
TABS,ioos:station:wmo:42047:1,2005-05-03T11:09:00Z,27.8966,-93.5973,4.0,6.847985105,64.4823361,12.3,'11111222,11111222,11111222' 
TABS,ioos:station:wmo:42047:1,2005-05-03T11:39:00Z,27.8966,-93.5973,4.0,7.129691438,58.3605626,12.54,'11111222,11111222,11111222' 
TABS,ioos:station:wmo:42047:1,2005-05-03T12:09:00Z,27.8966,-93.5973,4.0,7.846757292,54.6487251,13.79,'11111222,11111222,11111222' 
TABS,ioos:station:wmo:42047:1,2005-05-03T12:39:00Z,27.8966,-93.5973,4.0,7.943500488,56.70969309,14.11,'11111222,11111222,11111222' 
TABS,ioos:station:wmo:42047:1,2005-05-03T13:09:00Z,27.8966,-93.5973,4.0,7.731041327,57.35794047,14.18,'11111222,11111222,11111222' 
TABS,ioos:station:wmo:42047:1,2005-05-03T13:39:00Z,27.8966,-93.5973,4.0,7.598716997,66.90995095,13.58,'11111222,11111222,11111222' 
TABS,ioos:station:wmo:42047:1,2005-05-03T14:09:00Z,27.8966,-93.5973,4.0,7.772496381,66.17187112,14.06,'11111222,11111222,11111222' 
TABS,ioos:station:wmo:42047:1,2005-05-03T14:39:00Z,27.8966,-93.5973,4.0,7.893091916,67.26809064,14.08,'11111222,11111222,11111222' 
TABS,ioos:station:wmo:42047:1,2005-05-03T15:09:00Z,27.8966,-93.5973,4.0,7.895600041,69.38412902,14.19,'11111222,11111222,11111222' 
TABS,ioos:station:wmo:42047:1,2005-05-03T15:39:00Z,27.8966,-93.5973,4.0,8.03448816,65.82716683,14.46,'11111222,11111222,11111222' 
TABS,ioos:station:wmo:42047:1,2005-05-03T16:09:00Z,27.8966,-93.5973,4.0,7.871626261,68.2252532,14.31,'11111222,11111222,11111222' 
TABS,ioos:station:wmo:42047:1,2005-05-03T16:39:00Z,27.8966,-93.5973,4.0,8.319711533,68.86322946,14.33,'11111222,11111222,11111222' 
TABS,ioos:station:wmo:42047:1,2005-05-03T17:09:00Z,27.8966,-93.5973,4.0,8.588044015,70.1932164,14.64,'11111222,11111222,11111222' 
TABS,ioos:station:wmo:42047:1,2005-05-03T17:39:00Z,27.8966,-93.5973,4.0,8.646502183,61.24110856,15.54,'11111222,11111222,11111222' 
TABS,ioos:station:wmo:42047:1,2005-05-03T18:09:00Z,27.8966,-93.5973,4.0,9.45169297,60.66831141,16.27,'11111222,11111222,11111222' 
TABS,ioos:station:wmo:42047:1,2005-05-03T18:39:00Z,27.8966,-93.5973,4.0,8.60070346,62.65996911,16.11,'11111222,11111222,11111222' 
TABS,ioos:station:wmo:42047:1,2005-05-03T19:09:00Z,27.8966,-93.5973,4.0,9.193432438,55.0995424,16.76,'11111222,11111222,11111222' 
TABS,ioos:station:wmo:42047:1,2005-05-03T19:39:00Z,27.8966,-93.5973,4.0,8.873928104,61.38403337,16.28,'11111222,11111222,11111222' 
TABS,ioos:station:wmo:42047:1,2005-05-03T20:09:00Z,27.8966,-93.5973,4.0,8.095060222,64.06766532,14.88,'11111222,11111222,11111222' 
TABS,ioos:station:wmo:42047:1,2005-05-03T20:39:00Z,27.8966,-93.5973,4.0,7.860006361,62.00005298,14.93,'11111222,11111222,11111222' 
TABS,ioos:station:wmo:42047:1,2005-05-03T21:09:00Z,27.8966,-93.5973,4.0,7.675219867,61.26407385,14.87,'11111222,11111222,11111222' 
TABS,ioos:station:wmo:42047:1,2005-05-03T21:39:00Z,27.8966,-93.5973,4.0,7.794979153,63.23735967,14.78,'11111222,11111222,11111222' 
TABS,ioos:station:wmo:42047:1,2005-05-03T22:09:00Z,27.8966,-93.5973,4.0,8.03196738,61.52012805,15.42,'11111222,11111222,11111222' 
TABS,ioos:station:wmo:42047:1,2005-05-03T22:40:00Z,27.8966,-93.5973,4.0,1412.799349,44.99968431,16.24,'11144222,11111222,11111222' 
TABS,ioos:station:wmo:42047:1,2005-05-03T23:09:00Z,27.8966,-93.5973,4.0,8.33740967,55.85214979,15.45,'11111222,11111222,11111222' 
TABS,ioos:station:wmo:42047:1,2005-05-03T23:39:00Z,27.8966,-93.5973,4.0,8.610952328,55.07305289,15.42,'11111222,11111222,11111222' 
TABS,ioos:station:wmo:42047:1,2005-05-04T00:09:00Z,27.8966,-93.5973,4.0,8.884649684,57.22180733,15.52,'11111222,11111222,11111222' 
TABS,ioos:station:wmo:42047:1,2005-05-04T00:40:00Z,27.8966,-93.5973,4.0,3.741082731,18.87057933,15.82,'11111222,11111222,11111222' 
TABS,ioos:station:wmo:42047:1,2005-05-04T01:09:00Z,27.8966,-93.5973,4.0,8.991774019,62.00961909,15.65,'11111222,11111222,11111222' 
TABS,ioos:station:wmo:42047:1,2005-05-04T01:39:00Z,27.8966,-93.5973,4.0,9.202200824,65.74633989,16.54,'11111222,11111222,11111222' 
TABS,ioos:station:wmo:42047:1,2005-05-04T02:10:00Z,27.8966,-93.5973,4.0,28.94395446,82.5553869,16.59,'11111222,11111222,11111222' 
TABS,ioos:station:wmo:42047:1,2005-05-04T02:39:00Z,27.8966,-93.5973,4.0,9.477816204,67.08680427,16.79,'11111222,11111222,11111222' 
TABS,ioos:station:wmo:42047:1,2005-05-04T03:09:00Z,27.8966,-93.5973,4.0,9.505977067,71.22158977,17.04,'11111222,11111222,11111222' 
TABS,ioos:station:wmo:42047:1,2005-05-04T03:39:00Z,27.8966,-93.5973,4.0,9.708985529,66.44459628,16.7,'11111222,11111222,11111222' 
TABS,ioos:station:wmo:42047:1,2005-05-04T04:09:00Z,27.8966,-93.5973,4.0,9.023774155,65.02493812,16.85,'11111222,11111222,11111222' 
TABS,ioos:station:wmo:42047:1,2005-05-04T04:39:00Z,27.8966,-93.5973,4.0,9.158673485,66.98997401,16.11,'11111222,11111222,11111222' 
TABS,ioos:station:wmo:42047:1,2005-05-04T05:09:00Z,27.8966,-93.5973,4.0,9.11210733,68.36168845,16.02,'11111222,11111222,11111222' 
TABS,ioos:station:wmo:42047:1,2005-05-04T05:39:00Z,27.8966,-93.5973,4.0,8.943310349,67.79373146,16.48,'11111222,11111222,11111222' 
TABS,ioos:station:wmo:42047:1,2005-05-04T06:09:00Z,27.8966,-93.5973,4.0,9.017427571,67.98584066,16.43,'11111222,11111222,11111222' 
TABS,ioos:station:wmo:42047:1,2005-05-04T06:39:00Z,27.8966,-93.5973,4.0,8.617575065,73.2048494,15.35,'11111222,11111222,11111222' 
TABS,ioos:station:wmo:42047:1,2005-05-04T07:09:00Z,27.8966,-93.5973,4.0,8.697183452,70.73134093,15.03,'11111222,11111222,11111222' 
TABS,ioos:station:wmo:42047:1,2005-05-04T07:39:00Z,27.8966,-93.5973,4.0,8.690943562,68.74912327,15.67,'11111222,11111222,11111222' 
TABS,ioos:station:wmo:42047:1,2005-05-04T08:09:00Z,27.8966,-93.5973,4.0,8.975795229,73.36151532,15.4,'11111222,11111222,11111222' 
TABS,ioos:station:wmo:42047:1,2005-05-04T08:39:00Z,27.8966,-93.5973,4.0,8.644102035,74.01780182,15.09,'11111222,11111222,11111222' 
TABS,ioos:station:wmo:42047:1,2005-05-04T09:09:00Z,27.8966,-93.5973,4.0,8.160153185,69.63259442,15.71,'11111222,11111222,11111222' 
TABS,ioos:station:wmo:42047:1,2005-05-04T09:39:00Z,27.8966,-93.5973,4.0,8.274406323,65.50983579,15.02,'11111222,11111222,11111222' 
TABS,ioos:station:wmo:42047:1,2005-05-04T10:09:00Z,27.8966,-93.5973,4.0,8.046278643,60.59922599,14.54,'11111222,11111222,11111222' 
TABS,ioos:station:wmo:42047:1,2005-05-04T10:39:00Z,27.8966,-93.5973,4.0,7.976245984,64.84821697,14.23,'11111222,11111222,11111222' 
TABS,ioos:station:wmo:42047:1,2005-05-04T11:09:00Z,27.8966,-93.5973,4.0,8.095640802,65.55568146,14.8,'11111222,11111222,11111222' 
TABS,ioos:station:wmo:42047:1,2005-05-04T11:39:00Z,27.8966,-93.5973,4.0,8.286911367,63.24906781,14.9,'11111222,11111222,11111222' 
TABS,ioos:station:wmo:42047:1,2005-05-04T12:09:00Z,27.8966,-93.5973,4.0,7.823042886,57.52846272,14.22,'11111222,11111222,11111222' 
TABS,ioos:station:wmo:42047:1,2005-05-04T12:39:00Z,27.8966,-93.5973,4.0,8.486000236,53.14327122,15.18,'11111222,11111222,11111222' 
TABS,ioos:station:wmo:42047:1,2005-05-04T13:09:00Z,27.8966,-93.5973,4.0,9.285914064,49.01690484,16.71,'11111222,11111222,11111222' 
TABS,ioos:station:wmo:42047:1,2005-05-04T13:39:00Z,27.8966,-93.5973,4.0,8.882032425,53.2845855,15.92,'11111222,11111222,11111222' 
TABS,ioos:station:wmo:42047:1,2005-05-04T14:09:00Z,27.8966,-93.5973,4.0,8.680092165,52.86573429,15.92,'11111222,11111222,11111222' 
TABS,ioos:station:wmo:42047:1,2005-05-04T14:39:00Z,27.8966,-93.5973,4.0,9.00364926,57.10384138,15.39,'11111222,11111222,11111222' 
TABS,ioos:station:wmo:42047:1,2005-05-04T15:09:00Z,27.8966,-93.5973,4.0,8.635102779,70.30563111,14.95,'11111222,11111222,11111222' 
TABS,ioos:station:wmo:42047:1,2005-05-04T15:39:00Z,27.8966,-93.5973,4.0,8.870817324,69.88960051,15.61,'11111222,11111222,11111222' 
TABS,ioos:station:wmo:42047:1,2005-05-04T16:10:00Z,27.8966,-93.5973,4.0,1412.799349,44.99968431,15.17,'11144222,11111222,11111222' 
TABS,ioos:station:wmo:42047:1,2005-05-04T16:40:00Z,27.8966,-93.5973,4.0,2.811547617,21.27134872,14.85,'11111222,11111222,11111222' 
TABS,ioos:station:wmo:42047:1,2005-05-04T17:09:00Z,27.8966,-93.5973,4.0,9.165195033,58.56416003,15.8,'11111222,11111222,11111222' 
TABS,ioos:station:wmo:42047:1,2005-05-04T17:39:00Z,27.8966,-93.5973,4.0,8.787923532,57.35844647,15.77,'11111222,11111222,11111222' 
TABS,ioos:station:wmo:42047:1,2005-05-04T18:09:00Z,27.8966,-93.5973,4.0,8.772166209,59.13670831,15.19,'11111222,11111222,11111222' 
TABS,ioos:station:wmo:42047:1,2005-05-04T18:39:00Z,27.8966,-93.5973,4.0,9.432035835,52.9718284,16.82,'11111222,11111222,11111222' 
TABS,ioos:station:wmo:42047:1,2005-05-04T19:09:00Z,27.8966,-93.5973,4.0,9.099857142,56.29212748,16.51,'11111222,11111222,11111222' 
TABS,ioos:station:wmo:42047:1,2005-05-04T19:39:00Z,27.8966,-93.5973,4.0,9.174252013,53.55444964,16.09,'11111222,11111222,11111222' 
TABS,ioos:station:wmo:42047:1,2005-05-04T20:09:00Z,27.8966,-93.5973,4.0,9.174949591,52.30542676,16.12,'11111222,11111222,11111222' 
TABS,ioos:station:wmo:42047:1,2005-05-04T20:39:00Z,27.8966,-93.5973,4.0,9.098225102,52.72672733,16.16,'11111222,11111222,11111222' 
TABS,ioos:station:wmo:42047:1,2005-05-04T21:09:00Z,27.8966,-93.5973,4.0,8.547748241,50.12544245,16.68,'11111222,11111222,11111222' 
TABS,ioos:station:wmo:42047:1,2005-05-04T21:39:00Z,27.8966,-93.5973,4.0,8.668038994,51.88699221,15.96,'11111222,11111222,11111222' 